When you browse on this site, cookies collect data to enhance your experience and personalize the content and advertising you see.
Visit our Privacy Policy to learn more. By continuing to use the site, you agree to this use of cookies and data.
  • En España
  • Lista de países
  • Para 7 días
  • Temperatura del agua
  • El tiempo en el mapa
  • Informadores
  • user-avatar
    Iniciar sesión

    Tiempo cada hora Cheremushki

    Hoy, 20 Agosto, Martes

    Tiempo Temperatura Precipitaciones Viento Presión Humedad
    00:00 +15°C° 0 mm 0 mps 745 mmHg 86%
    01:00 +15°C° 0 mm 0 mps 745 mmHg 86%
    02:00 +15°C° 0 mm 0 mps 745 mmHg 86%
    03:00 +15°C° 0 mm 0 mps 746 mmHg 86%
    04:00 +15°C° 0 mm 0 mps 746 mmHg 86%
    05:00 +15°C° 0 mm 0 mps 746 mmHg 86%
    06:00 +16°C° 0 mm 0 mps 746 mmHg 81%
    07:00 +18°C° 0 mm 0 mps 746 mmHg 75%
    08:00 +22°C° 0 mm 1 mps 747 mmHg 70%
    09:00 +23°C° 0 mm 1 mps 747 mmHg 66%
    10:00 +24°C° 0 mm 1 mps 747 mmHg 62%
    11:00 +26°C° 0 mm 1 mps 747 mmHg 57%
    12:00 +26°C° 0 mm 1 mps 747 mmHg 56%
    13:00 +27°C° 0 mm 1 mps 747 mmHg 54%
    14:00 +27°C° 0 mm 1 mps 746 mmHg 53%
    15:00 +27°C° 0 mm 1 mps 746 mmHg 57%
    16:00 +27°C° 0 mm 1 mps 746 mmHg 61%
    17:00 +26°C° 0 mm 1 mps 746 mmHg 65%
    18:00 +25°C° 0 mm 1 mps 747 mmHg 68%
    19:00 +21°C° 0 mm 0 mps 747 mmHg 70%
    20:00 +19°C° 0 mm 0 mps 747 mmHg 73%
    21:00 +21°C° 0 mm 1 mps 747 mmHg 75%
    22:00 +20°C° 0 mm 1 mps 747 mmHg 76%
    23:00 +20°C° 0 mm 1 mps 747 mmHg 77%

    Mañana, 21 Agosto, Miércoles

    Tiempo Temperatura Precipitaciones Viento Presión Humedad
    00:00 +20°C° 0 mm 1 mps 747 mmHg 79%
    01:00 +19°C° 0 mm 1 mps 747 mmHg 80%
    02:00 +19°C° 0 mm 1 mps 747 mmHg 81%
    03:00 +19°C° 0 mm 1 mps 747 mmHg 82%
    04:00 +19°C° 0 mm 1 mps 747 mmHg 82%
    05:00 +19°C° 0 mm 1 mps 747 mmHg 83%
    06:00 +20°C° 0 mm 1 mps 747 mmHg 78%
    07:00 +22°C° 0 mm 1 mps 747 mmHg 74%
    08:00 +24°C° 0 mm 1 mps 748 mmHg 69%
    09:00 +25°C° 0 mm 1 mps 748 mmHg 66%
    10:00 +24°C° 0 mm 0 mps 748 mmHg 62%
    11:00 +26°C° 0 mm 0 mps 747 mmHg 59%
    12:00 +28°C° 0 mm 1 mps 747 mmHg 57%
    13:00 +28°C° 0 mm 1 mps 747 mmHg 56%
    14:00 +29°C° 0 mm 1 mps 747 mmHg 54%
    15:00 +29°C° 0 mm 1 mps 747 mmHg 58%
    16:00 +28°C° 0 mm 1 mps 746 mmHg 61%
    17:00 +28°C° 0 mm 1 mps 746 mmHg 65%
    18:00 +26°C° 0 mm 1 mps 746 mmHg 68%
    19:00 +25°C° 0 mm 1 mps 746 mmHg 72%
    20:00 +23°C° 0 mm 1 mps 746 mmHg 76%
    21:00 +22°C° 0 mm 1 mps 746 mmHg 77%
    22:00 +22°C° 0 mm 1 mps 746 mmHg 79%
    23:00 +20°C° 0 mm 2 mps 746 mmHg 80%

    Pasado mañana, 22 Agosto, Jueves

    Tiempo Temperatura Precipitaciones Viento Presión Humedad
    00:00 +21°C° 0 mm 1 mps 746 mmHg 82%
    01:00 +20°C° 0 mm 1 mps 746 mmHg 83%
    02:00 +20°C° 0 mm 1 mps 745 mmHg 85%
    03:00 +20°C° 0 mm 1 mps 745 mmHg 86%
    04:00 +20°C° 0 mm 1 mps 745 mmHg 86%
    05:00 +19°C° 0 mm 1 mps 745 mmHg 87%
    06:00 +21°C° 0 mm 1 mps 745 mmHg 82%
    07:00 +23°C° 0 mm 1 mps 745 mmHg 77%
    08:00 +24°C° 0 mm 1 mps 745 mmHg 71%
    09:00 +25°C° 0 mm 1 mps 745 mmHg 68%
    10:00 +27°C° 0 mm 1 mps 745 mmHg 64%
    11:00 +28°C° 0 mm 1 mps 745 mmHg 61%
    12:00 +28°C° 0 mm 1 mps 745 mmHg 60%
    13:00 +28°C° 0 mm 1 mps 745 mmHg 59%
    14:00 +29°C° 0 mm 1 mps 745 mmHg 57%
    15:00 +28°C° 0.6 mm 2 mps 745 mmHg 64%
    16:00 +27°C° 0.6 mm 3 mps 745 mmHg 70%
    17:00 +26°C° 0.6 mm 3 mps 744 mmHg 77%
    18:00 +23°C° 0.4 mm 4 mps 745 mmHg 82%
    19:00 +21°C° 0.4 mm 4 mps 745 mmHg 88%
    20:00 +19°C° 0.4 mm 5 mps 745 mmHg 93%
    21:00 +19°C° 0.1 mm 4 mps 746 mmHg 94%
    22:00 +18°C° 0.1 mm 4 mps 746 mmHg 94%
    23:00 +17°C° 0.1 mm 4 mps 746 mmHg 94%

    23 Agosto, Viernes

    Tiempo Temperatura Precipitaciones Viento Presión Humedad
    00:00 +17°C° 0 mm 4 mps 746 mmHg 94%
    01:00 +17°C° 0 mm 4 mps 746 mmHg 93%
    02:00 +15°C° 0 mm 4 mps 747 mmHg 93%
    03:00 +15°C° 0 mm 4 mps 747 mmHg 93%
    04:00 +15°C° 0 mm 4 mps 747 mmHg 93%
    05:00 +14°C° 0 mm 4 mps 747 mmHg 93%
    06:00 +15°C° 0 mm 4 mps 747 mmHg 89%
    07:00 +17°C° 0 mm 4 mps 747 mmHg 86%
    08:00 +17°C° 0 mm 5 mps 747 mmHg 83%
    09:00 +19°C° 0 mm 5 mps 747 mmHg 78%
    10:00 +20°C° 0 mm 5 mps 747 mmHg 74%
    11:00 +21°C° 0 mm 4 mps 747 mmHg 70%
    12:00 +21°C° 0 mm 4 mps 747 mmHg 68%
    13:00 +22°C° 0 mm 4 mps 747 mmHg 66%
    14:00 +22°C° 0 mm 4 mps 747 mmHg 64%
    15:00 +22°C° 0 mm 4 mps 747 mmHg 66%
    16:00 +22°C° 0 mm 3 mps 747 mmHg 69%
    17:00 +21°C° 0 mm 3 mps 747 mmHg 71%
    18:00 +20°C° 0 mm 3 mps 747 mmHg 74%
    19:00 +18°C° 0 mm 2 mps 747 mmHg 76%
    20:00 +17°C° 0 mm 2 mps 748 mmHg 78%
    21:00 +16°C° 0 mm 2 mps 748 mmHg 79%
    22:00 +15°C° 0 mm 2 mps 748 mmHg 81%
    23:00 +15°C° 0 mm 2 mps 748 mmHg 83%

    24 Agosto, Sábado

    Tiempo Temperatura Precipitaciones Viento Presión Humedad
    00:00 +14°C° 0 mm 2 mps 748 mmHg 84%
    01:00 +14°C° 0 mm 2 mps 748 mmHg 84%
    02:00 +13°C° 0 mm 2 mps 748 mmHg 85%
    03:00 +13°C° 0 mm 2 mps 748 mmHg 86%
    04:00 +13°C° 0 mm 2 mps 748 mmHg 86%
    05:00 +12°C° 0 mm 2 mps 749 mmHg 87%
    06:00 +14°C° 0 mm 2 mps 749 mmHg 83%
    07:00 +16°C° 0 mm 3 mps 749 mmHg 78%
    08:00 +17°C° 0 mm 3 mps 749 mmHg 74%
    09:00 +19°C° 0 mm 3 mps 749 mmHg 67%
    10:00 +20°C° 0 mm 3 mps 749 mmHg 61%
    11:00 +21°C° 0 mm 3 mps 749 mmHg 54%
    12:00 +21°C° 0 mm 2 mps 749 mmHg 52%
    13:00 +23°C° 0 mm 2 mps 749 mmHg 50%
    14:00 +23°C° 0 mm 2 mps 749 mmHg 48%
    15:00 +23°C° 0 mm 2 mps 749 mmHg 52%
    16:00 +23°C° 0 mm 2 mps 749 mmHg 56%
    17:00 +22°C° 0 mm 1 mps 748 mmHg 61%
    18:00 +20°C° 0 mm 1 mps 749 mmHg 63%
    19:00 +19°C° 0 mm 1 mps 749 mmHg 65%
    20:00 +15°C° 0 mm 0 mps 749 mmHg 67%
    21:00 +16°C° 0 mm 1 mps 749 mmHg 68%
    22:00 +15°C° 0 mm 1 mps 749 mmHg 69%
    23:00 +15°C° 0 mm 1 mps 749 mmHg 70%

    25 Agosto, Domingo

    Tiempo Temperatura Precipitaciones Viento Presión Humedad
    00:00 +15°C° 0 mm 1 mps 749 mmHg 71%
    01:00 +14°C° 0 mm 1 mps 749 mmHg 72%
    02:00 +14°C° 0 mm 2 mps 749 mmHg 74%
    03:00 +14°C° 0 mm 2 mps 748 mmHg 76%
    04:00 +13°C° 0 mm 2 mps 748 mmHg 79%
    05:00 +13°C° 0 mm 2 mps 748 mmHg 81%
    06:00 +15°C° 0 mm 2 mps 748 mmHg 78%
    07:00 +16°C° 0 mm 2 mps 748 mmHg 75%
    08:00 +18°C° 0 mm 2 mps 748 mmHg 73%
    09:00 +19°C° 0 mm 2 mps 748 mmHg 68%
    10:00 +21°C° 0 mm 3 mps 748 mmHg 64%
    11:00 +22°C° 0 mm 3 mps 748 mmHg 59%
    12:00 +22°C° 0 mm 3 mps 747 mmHg 57%
    13:00 +24°C° 0 mm 3 mps 747 mmHg 56%
    14:00 +24°C° 0 mm 3 mps 747 mmHg 54%
    15:00 +24°C° 0 mm 3 mps 746 mmHg 58%
    16:00 +23°C° 0 mm 2 mps 746 mmHg 62%
    17:00 +23°C° 0 mm 2 mps 746 mmHg 66%
    18:00 +20°C° 0 mm 2 mps 746 mmHg 70%
    19:00 +19°C° 0 mm 2 mps 746 mmHg 74%
    20:00 +17°C° 0 mm 2 mps 746 mmHg 78%
    21:00 +16°C° 0 mm 2 mps 746 mmHg 81%
    22:00 +16°C° 0 mm 2 mps 746 mmHg 83%
    23:00 +15°C° 0 mm 2 mps 746 mmHg 86%
    Mostrar más